Météo par heure à Aliwal North

Ce jour, 15 Mai, Samedi

Heure Température Précipitation Vent Pression Humidité
00:00 +12°C° 0 mm 3 m/s 650 mmHg 34%
01:00 +13°C° 0 mm 2 m/s 649 mmHg 36%
02:00 +12°C° 0 mm 2 m/s 649 mmHg 37%
03:00 +12°C° 0 mm 2 m/s 649 mmHg 38%
04:00 +10°C° 0 mm 2 m/s 649 mmHg 40%
05:00 +11°C° 0 mm 1 m/s 648 mmHg 42%
06:00 +10°C° 0 mm 2 m/s 649 mmHg 40%
07:00 +12°C° 0 mm 2 m/s 649 mmHg 39%
08:00 +13°C° 0 mm 2 m/s 650 mmHg 40%
09:00 +15°C° 0 mm 4 m/s 650 mmHg 35%
10:00 +17°C° 0 mm 6 m/s 651 mmHg 31%
11:00 +21°C° 0 mm 7 m/s 651 mmHg 27%
12:00 +22°C° 0 mm 8 m/s 651 mmHg 26%
13:00 +22°C° 0 mm 9 m/s 650 mmHg 24%
14:00 +23°C° 0 mm 9 m/s 649 mmHg 23%
15:00 +22°C° 0 mm 9 m/s 649 mmHg 25%
16:00 +21°C° 0 mm 8 m/s 649 mmHg 26%
17:00 +20°C° 0 mm 8 m/s 649 mmHg 28%
18:00 +19°C° 0 mm 6 m/s 648 mmHg 32%
19:00 +16°C° 0 mm 5 m/s 648 mmHg 36%
20:00 +14°C° 0 mm 3 m/s 648 mmHg 40%
21:00 +14°C° 0 mm 3 m/s 648 mmHg 42%
22:00 +13°C° 0 mm 3 m/s 648 mmHg 44%
23:00 +13°C° 0 mm 3 m/s 648 mmHg 45%

Demain, 16 Mai, Dimanche

Heure Température Précipitation Vent Pression Humidité
00:00 +12°C° 0 mm 3 m/s 648 mmHg 47%
01:00 +12°C° 0 mm 3 m/s 648 mmHg 48%
02:00 +11°C° 0 mm 3 m/s 648 mmHg 49%
03:00 +11°C° 0 mm 3 m/s 648 mmHg 52%
04:00 +10°C° 0 mm 3 m/s 648 mmHg 54%
05:00 +10°C° 0 mm 3 m/s 647 mmHg 57%
06:00 +10°C° 0 mm 3 m/s 648 mmHg 58%
07:00 +10°C° 0 mm 3 m/s 648 mmHg 59%
08:00 +10°C° 0 mm 3 m/s 649 mmHg 60%
09:00 +12°C° 0 mm 4 m/s 649 mmHg 57%
10:00 +13°C° 0 mm 5 m/s 650 mmHg 54%
11:00 +15°C° 0 mm 6 m/s 650 mmHg 51%
12:00 +15°C° 0 mm 6 m/s 650 mmHg 51%
13:00 +15°C° 0 mm 7 m/s 649 mmHg 52%
14:00 +15°C° 0 mm 8 m/s 649 mmHg 52%
15:00 +14°C° 0 mm 6 m/s 649 mmHg 52%
16:00 +14°C° 0 mm 5 m/s 649 mmHg 53%
17:00 +13°C° 0 mm 4 m/s 649 mmHg 53%
18:00 +13°C° 0 mm 4 m/s 650 mmHg 54%
19:00 +12°C° 0 mm 3 m/s 650 mmHg 54%
20:00 +13°C° 0 mm 2 m/s 650 mmHg 55%
21:00 +13°C° 0 mm 2 m/s 651 mmHg 54%
22:00 +13°C° 0 mm 2 m/s 651 mmHg 52%
23:00 +13°C° 0 mm 2 m/s 651 mmHg 51%

Après-demain, 17 Mai, Lundi

Heure Température Précipitation Vent Pression Humidité
00:00 +12°C° 0 mm 2 m/s 651 mmHg 56%
01:00 +10°C° 0 mm 2 m/s 650 mmHg 61%
02:00 +9°C° 0 mm 2 m/s 650 mmHg 67%
03:00 +8°C° 0 mm 2 m/s 650 mmHg 70%
04:00 +7°C° 0 mm 2 m/s 650 mmHg 73%
05:00 +8°C° 0 mm 1 m/s 650 mmHg 76%
06:00 +8°C° 0 mm 1 m/s 651 mmHg 73%
07:00 +9°C° 0 mm 1 m/s 651 mmHg 70%
08:00 +10°C° 0 mm 1 m/s 652 mmHg 68%
09:00 +10°C° 0 mm 2 m/s 652 mmHg 60%
10:00 +13°C° 0 mm 2 m/s 653 mmHg 51%
11:00 +14°C° 0 mm 3 m/s 653 mmHg 43%
12:00 +15°C° 0 mm 4 m/s 653 mmHg 39%
13:00 +17°C° 0 mm 4 m/s 653 mmHg 34%
14:00 +17°C° 0 mm 4 m/s 652 mmHg 30%
15:00 +17°C° 0 mm 4 m/s 652 mmHg 30%
16:00 +16°C° 0 mm 3 m/s 652 mmHg 31%
17:00 +16°C° 0 mm 3 m/s 652 mmHg 32%
18:00 +14°C° 0 mm 2 m/s 652 mmHg 36%
19:00 +13°C° 0 mm 2 m/s 652 mmHg 39%
20:00 +11°C° 0 mm 1 m/s 652 mmHg 43%
21:00 +11°C° 0 mm 1 m/s 652 mmHg 44%
22:00 +10°C° 0 mm 1 m/s 652 mmHg 45%
23:00 +10°C° 0 mm 1 m/s 652 mmHg 46%

18 Mai, Mardi

Heure Température Précipitation Vent Pression Humidité
00:00 +9°C° 0 mm 1 m/s 652 mmHg 47%
01:00 +9°C° 0 mm 1 m/s 652 mmHg 48%
02:00 +9°C° 0 mm 1 m/s 652 mmHg 50%
03:00 +8°C° 0 mm 1 m/s 652 mmHg 51%
04:00 +7°C° 0 mm 2 m/s 652 mmHg 53%
05:00 +7°C° 0 mm 2 m/s 652 mmHg 54%
06:00 +8°C° 0 mm 2 m/s 653 mmHg 53%
07:00 +8°C° 0 mm 2 m/s 653 mmHg 52%
08:00 +9°C° 0 mm 2 m/s 654 mmHg 51%
09:00 +12°C° 0 mm 3 m/s 654 mmHg 44%
10:00 +14°C° 0 mm 4 m/s 655 mmHg 37%
11:00 +17°C° 0 mm 5 m/s 655 mmHg 30%
12:00 +19°C° 0 mm 6 m/s 655 mmHg 27%
13:00 +20°C° 0 mm 6 m/s 654 mmHg 25%
14:00 +21°C° 0 mm 7 m/s 654 mmHg 22%
15:00 +20°C° 0 mm 6 m/s 654 mmHg 24%
16:00 +19°C° 0 mm 5 m/s 653 mmHg 26%
17:00 +18°C° 0 mm 4 m/s 653 mmHg 27%
18:00 +17°C° 0 mm 4 m/s 653 mmHg 30%
19:00 +14°C° 0 mm 3 m/s 653 mmHg 33%
20:00 +14°C° 0 mm 2 m/s 653 mmHg 36%
21:00 +13°C° 0 mm 2 m/s 653 mmHg 37%
22:00 +13°C° 0 mm 2 m/s 653 mmHg 38%
23:00 +12°C° 0 mm 2 m/s 652 mmHg 39%

19 Mai, Mercredi

Heure Température Précipitation Vent Pression Humidité
00:00 +12°C° 0 mm 2 m/s 652 mmHg 40%
01:00 +10°C° 0 mm 2 m/s 652 mmHg 40%
02:00 +10°C° 0 mm 2 m/s 652 mmHg 41%
03:00 +10°C° 0 mm 2 m/s 652 mmHg 41%
04:00 +10°C° 0 mm 2 m/s 652 mmHg 41%
05:00 +9°C° 0 mm 2 m/s 652 mmHg 41%
06:00 +10°C° 0 mm 2 m/s 652 mmHg 40%
07:00 +12°C° 0 mm 2 m/s 652 mmHg 40%
08:00 +12°C° 0 mm 2 m/s 653 mmHg 39%
09:00 +14°C° 0 mm 4 m/s 653 mmHg 34%
10:00 +19°C° 0 mm 5 m/s 654 mmHg 29%
11:00 +22°C° 0 mm 7 m/s 654 mmHg 24%
12:00 +23°C° 0 mm 8 m/s 654 mmHg 23%
13:00 +24°C° 0 mm 10 m/s 653 mmHg 22%
14:00 +26°C° 0 mm 11 m/s 652 mmHg 21%
15:00 +24°C° 0 mm 9 m/s 652 mmHg 22%
16:00 +23°C° 0 mm 8 m/s 652 mmHg 24%
17:00 +22°C° 0 mm 6 m/s 652 mmHg 26%
18:00 +21°C° 0 mm 5 m/s 652 mmHg 29%
19:00 +19°C° 0 mm 4 m/s 652 mmHg 31%
20:00 +18°C° 0 mm 3 m/s 651 mmHg 34%
21:00 +17°C° 0 mm 3 m/s 651 mmHg 35%
22:00 +17°C° 0 mm 3 m/s 651 mmHg 37%
23:00 +16°C° 0 mm 3 m/s 651 mmHg 38%

20 Mai, Jeudi

Heure Température Précipitation Vent Pression Humidité
00:00 +17°C° 0 mm 4 m/s 651 mmHg 39%
01:00 +17°C° 0 mm 4 m/s 651 mmHg 39%
02:00 +17°C° 0 mm 4 m/s 650 mmHg 40%
03:00 +16°C° 0 mm 5 m/s 650 mmHg 40%
04:00 +16°C° 0 mm 6 m/s 650 mmHg 41%
05:00 +16°C° 0 mm 6 m/s 650 mmHg 41%
06:00 +16°C° 0 mm 6 m/s 650 mmHg 42%
07:00 +16°C° 0 mm 6 m/s 651 mmHg 42%
08:00 +16°C° 0 mm 6 m/s 651 mmHg 42%
09:00 +18°C° 0 mm 7 m/s 651 mmHg 37%
10:00 +21°C° 0 mm 9 m/s 652 mmHg 33%
11:00 +22°C° 0 mm 10 m/s 652 mmHg 28%
12:00 +23°C° 0 mm 10 m/s 652 mmHg 27%
13:00 +23°C° 0 mm 11 m/s 651 mmHg 25%
14:00 +24°C° 0 mm 11 m/s 651 mmHg 23%
15:00 +22°C° 0 mm 10 m/s 651 mmHg 22%
16:00 +21°C° 0 mm 10 m/s 651 mmHg 20%
17:00 +19°C° 0 mm 9 m/s 651 mmHg 18%
18:00 +17°C° 0 mm 8 m/s 652 mmHg 20%
19:00 +15°C° 0 mm 6 m/s 652 mmHg 21%
20:00 +13°C° 0 mm 4 m/s 652 mmHg 23%
21:00 +12°C° 0 mm 3 m/s 652 mmHg 27%
22:00 +12°C° 0 mm 2 m/s 653 mmHg 30%
23:00 +10°C° 0 mm 2 m/s 653 mmHg 34%
Voir plus

Nous avons besoin de votre consentement

Meteoprog et ses fournisseurs de services peuvent stocker et accéder à des données personnelles telles que des cookies, des identifiants d'appareils ou d'autres technologies similaires sur votre appareil et traiter ces données pour personnaliser le contenu et les publicités, ainsi que pour fournir des fonctionnalités de médias sociaux et analyser le trafic.

  • Stocker et/ou accéder à des informations sur votre appareil

    Des cookies, des identifiants d'appareils ou d'autres informations peuvent être stockés ou accessibles sur votre appareil aux fins indiquées ci-dessus.

  • Annonces et contenus personnalisés, mesure des annonces et des contenus, connaissance de l'audience et développement de produits

    Les annonces et le contenu peuvent être personnalisés en fonction d'un profil. D'autres données peuvent être ajoutées pour mieux personnaliser les annonces et le contenu. Les performances des publicités et du contenu peuvent être mesurées. Il est possible d'obtenir des informations sur le public qui a vu les publicités et le contenu. Ces données peuvent être utilisées pour développer ou améliorer l'expérience de l'utilisateur, les systèmes et les logiciels.

En cliquant sur "J'accepte", vous autorisez l'utilisation de cookies, des identifiants d'appareils, des balises web ou d'autres technologies similaires. Vos paramètres peuvent être modifiés dans le navigateur de votre appareil.

Dans certains cas, des intérêts légitimes peuvent être invoqués plutôt qu'un consentement. Vous pouvez en savoir plus à ce sujet dans notre Politique de confidentialité et de cookies.